Regional Weather Roundup
Issued by NWS

Home | Current Version | Previous Version | Graphics & Text | Print | Product List | Glossary On
Versions: 1 2 3 4 5 6 7 8 9 10 11 12 13 14 15 16 17 18 19 20 21 22 23 24 25 26 27 28 29 30 31 32 33 34 35 36 37 38 39 40 41 42 43 44 45 46 47 48 49 50
000
ASUS45 KCYS 272110
RWRWY

WYOMING REGIONAL WEATHER ROUNDUP
NATIONAL WEATHER SERVICE CHEYENNE WY
200 PM MST TUE JAN 27 2015

NOTE:  "FAIR" INDICATES FEW OR NO CLOUDS BELOW 12,000 FEET
WITH NO SIGNIFICANT WEATHER AND/OR OBSTRUCTIONS TO VISIBILITY.

WYZ001-272200-
YELLOWSTONE NATIONAL PARK

CITY           SKY/WX    TMP DP  RH WIND       PRES   REMARKS
LK YELLOWSTONE   N/A     30  18  60 CALM      30.16F
W YELLOWSTONE  NOT AVBL

$$
WYZ002>013-054>058-071-098>099-272200-
NORTHERN WYOMING

CITY           SKY/WX    TMP DP  RH WIND       PRES   REMARKS
JACKSON        SUNNY     19  19 100 CALM      30.19F
CODY           FAIR      52  34  50 NE5       29.96F
GREYBULL       FAIR      37  27  67 W5        29.98F WCI  33
WORLAND        FAIR      35  26  69 NE3       29.98F
SHERIDAN       FAIR      57  31  37 NW6       29.88F
BUFFALO          N/A     63  27  25 NW3       29.92F
GILLETTE       FAIR      63  32  31 SW16      29.90F
HULETT           N/A    N/A N/A N/A MISG        N/A
NEWCASTLE      FAIR      63  27  25 MISG      29.97F

$$
WYZ014>020-022>026-101>103-272200-
CENTRAL WYOMING

CITY           SKY/WX    TMP DP  RH WIND       PRES   REMARKS
BIG PINEY      PTSUNNY   38  23  55 CALM      30.18F
PINEDALE       FAIR      39  23  52 CALM      30.19F
DUBOIS         FAIR      52  18  25 W26       30.07F
LANDER         FAIR      39  30  70 CALM      30.04F
RIVERTON       FAIR      38  30  73 SW5       30.06F WCI  34
CASPER         FAIR      58  26  29 SW21G32   30.03S
DOUGLAS        FAIR      69  18  14 W25G49    30.00F

$$
WYZ021-027>030-104>119-272200-
SOUTHERN WYOMING

CITY           SKY/WX    TMP DP  RH WIND       PRES   REMARKS
EVANSTON       CLOUDY    45  28  51 SW16      30.20S
KEMMERER       CLOUDY    41  28  60 W3        30.19F
FORT BRIDGER   MOCLDY    45  31  57 CALM      30.22F
ROCK SPRINGS   CLOUDY    48  27  44 NW6       30.16F
DIXON          FAIR      50  28  42 SW7       30.24F
RAWLINS        FAIR      51  24  34 SW20G30   30.18F
SARATOGA       FAIR      52  21  30 SW18      30.18F
LARAMIE        FAIR      57  20  23 SW20      30.15F
CHEYENNE       FAIR      67  19  16 W16       30.08F
TORRINGTON     FAIR      74  22  14 W13       29.97F
PINE BLUFFS    FAIR      70  18  13 NW3       30.05S

$$


USA.gov is the U.S. government's official web portal to all federal, state and local government web resources and services.